Regional Weather Roundup
Issued by NWS Cleveland, OH

Home | Current Version | Previous Version | Graphics & Text | Print | Product List | Glossary On
Versions: 1 2 3 4 5 6 7 8 9 10 11 12 13 14 15 16 17 18 19 20 21 22 23 24 25 26 27 28 29 30 31 32 33 34 35 36 37 38 39 40 41 42 43 44 45 46 47 48 49 50
000
ASUS41 KCLE 290800
RWRCLE
OHIO REGIONAL WEATHER ROUNDUP
NATIONAL WEATHER SERVICE WILMINGTON, OH
400 AM EDT FRI APR 29 2016

NOTE: "FAIR" INDICATES FEW OR NO CLOUDS BELOW 12,000 FEET WITH NO
SIGNIFICANT WEATHER AND/OR OBSTRUCTIONS TO VISIBILITY.

OHZ001>008-015>018-024>027-034-035-043-044-290900-
   NORTHWEST OHIO

CITY           SKY/WX    TMP DP  RH WIND       PRES   REMARKS
DEFIANCE       CLOUDY    47  39  74 N5        30.01R
FINDLAY        CLOUDY    47  41  80 N5        29.98R
TOLEDO EXPRESS CLOUDY    46  35  65 NE7       30.00R
TOLEDO EXEC    CLOUDY    46  35  65 NE7       30.01R
LIMA           CLOUDY    45  43  93 N6        29.98R
$$

OHZ009>014-019>023-028>033-038-089-290900-
   NORTHEAST OHIO

CITY           SKY/WX    TMP DP  RH WIND       PRES   REMARKS
CLE-HOPKINS    LGT RAIN  47  44  90 N5        29.98S
CLE-LAKEFRONT  LGT RAIN  47  43  86 NE8       29.96S
CUY CO. ARPT   NOT AVBL
LORAIN-ELYRIA  LGT RAIN  45  42  89 NE5       29.97R FOG
ASHTABULA      CLOUDY    44  42  93 E3        29.97S
AKRON-CANTON   LGT RAIN  46  44  93 CALM      29.95R FOG
WOOSTER        NOT AVBL
MANSFIELD      CLOUDY    47  47 100 N3        29.96R FOG
YOUNGSTOWN     LGT RAIN  45  42  89 NE3       29.95S FOG
$$

OHZ042-051>053-060>062-070>072-077>081-290900-
  SOUTHWEST OHIO

CITY           SKY/WX    TMP DP  RH WIND       PRES   REMARKS
CINC-COVINGTON CLOUDY    56  55  97 N5        29.97F FOG
CINC-LUNKEN    MOCLDY    56  56 100 CALM      29.98S FOG
HAMILTON       CLOUDY    56  53  90 CALM      29.99S FOG
DAYTON         NOT AVBL
WRIGHT-PAT AFB NOT AVBL
DAYTON GENERAL CLOUDY    53  49  86 W3        29.97S FOG
WILMINGTON     FOG       51  51 100 NW5       29.96F VSB 1/2
$$

OHZ036-037-039>041-045>050-054>059-063>069-073>076-082>088-290900-
  CENTRAL AND SOUTHEAST OHIO

CITY           SKY/WX    TMP DP  RH WIND       PRES   REMARKS
COLUMBUS       CLOUDY    52  49  89 NW5       29.95R FOG
OSU AIRPORT    CLOUDY    51  49  92 NW6       29.96R FOG
BOLTON FIELD   NOT AVBL
RICKENBACK AFB NOT AVBL
NEWARK         CLOUDY    54  49  83 NW7       29.95R
MARION         FOG       47  46  97 NW7       29.97R VSB 1
LANCASTER      CLOUDY    54  53  97 W6        29.96R FOG
ZANESVILLE     FOG       53  50  89 N3        29.94R VSB 3/4
NEW PHILLY     CLOUDY    48  44  86 CALM      29.95R
$$




USA.gov is the U.S. government's official web portal to all federal, state and local government web resources and services.